Flag for U.S.A. Weather past 2 weeks in Arden-Arcade, California, U.S.A.

Now
99 °F

Scattered clouds.


Feels Like: 95 °F
Forecast: 68 / 101 °F
Wind: 8 mph from West

Location: Mather Field

Current Time: Jul 30, 2014 at 5:21:02 PM

Latest Report: Jul 30, 2014 at 3:47 PM


Visibility: 10 mi

Pressure: 29.88 "Hg

Humidity: 17%

Dew point: 46 °F

Location of Arden-ArcadeLocation

Historic Weather in Arden-Arcade — Graph

°F

Arden-Arcade temperature yesterday

Maximum temperature yesterday: 99 °F (at 2:58 PM)
Minimum temperature yesterday: 66 °F (at 5:45 AM)
Average temperature yesterday: 82 °F

Past Weeks' High & Low Weather Summary

 TemperatureHumidityPressure
High102 °F (Jul 25, 5:55 PM)100% (Jul 19, 4:55 AM)30.13 "Hg (Jul 19, 4:55 AM)
Low55 °F (Jul 23, 5:46 AM)8% (Jul 25, 7:45 PM)29.77 "Hg (Jul 25, 5:55 PM)
Average76 °F51%29.94 "Hg
* Reported Jul 15 3:55 PM — Jul 30 3:47 PM, Arden-Arcade, Weather by CustomWeather, © 2014

Note: Actual official high and low records may vary slightly from our data, if they occured in-between our weather recording intervals... More about our weather records

Advertising

Arden-Arcade weather history for previous 24 hours

 ConditionsComfort  
Time TempWeatherWind HumidityBarometerVisibility
3:47 PM
Jul 30
99 °FScattered clouds.8 mph17%29.88 "Hg10 mi
12:55 PM90 °FScattered clouds.7 mph31%29.93 "Hg10 mi
11:45 AM86 °FScattered clouds.8 mph35%29.95 "Hg10 mi
10:45 AM81 °FScattered clouds.6 mph42%29.96 "Hg10 mi
9:47 AM75 °FScattered clouds.5 mph50%29.97 "Hg10 mi
8:45 AM73 °FScattered clouds.No wind53%29.97 "Hg10 mi
7:50 AM70 °FScattered clouds.6 mph60%29.96 "Hg10 mi
6:45 AM66 °FPassing clouds.5 mph68%29.94 "Hg10 mi
5:46 AM64 °FPassing clouds.3 mph68%29.93 "Hg10 mi
4:46 AM68 °FPassing clouds.3 mph60%29.92 "Hg10 mi
3:46 AM66 °FPassing clouds.5 mph64%29.91 "Hg10 mi
2:46 AM68 °FPassing clouds.5 mph60%29.92 "Hg10 mi
10:45 PM
Jul 29
73 °FClear.6 mph41%29.93 "Hg10 mi
9:45 PM79 °FPassing clouds.5 mph32%29.93 "Hg10 mi
8:45 PM86 °FScattered clouds.6 mph24%29.92 "Hg10 mi
7:49 PM91 °FScattered clouds.10 mph21%29.91 "Hg10 mi
6:45 PM95 °FScattered clouds.12 mph16%29.90 "Hg10 mi
5:59 PM99 °FScattered clouds.9 mph12%29.90 "Hg10 mi
Weather by CustomWeather, © 2014

See weather overviewHow to use our weather pages